Location: ??????
(54.6877°N, 39.3901°E)
Time: 14:02:13
(UTC+00:00)

Daily predictions for brighter satellites

Satellite Brightness Start Highest point End
(mag) Time Altitude Azimuth Time Altitude Azimuth Time Altitude Azimuth
Cosmos 1725 Rocket 4.1 17:55:15 10° S 18:01:32 86° E 18:07:48 10° NNE
DEBRIS 3.8 18:00:02 10° SW 18:02:53 38° SSE 18:10:10 10° E
Cosmos 1331 Rocket 4.5 17:57:50 10° SW 18:03:02 68° WNW 18:08:15 10° NNE
Okean-O 2.7 17:59:25 10° SSE 18:03:48 89° WSW 18:08:12 10° NNW
Cosmos 2228 2.9 18:00:17 10° S 18:04:21 66° E 18:08:26 10° NNE
Tsikada Rocket 4.1 17:58:26 10° N 18:04:40 89° ENE 18:10:49 10° S
DNEPR-1 R/B 4.4 18:00:04 10° NW 18:05:13 71° NE 18:11:32 10° SE
Cosmos 1452 Rocket 3.6 18:00:04 10° SSW 18:05:18 85° WNW 18:10:35 10° NNE
Cosmos 1437 Rocket 3.9 18:03:12 10° SE 18:06:02 23° E 18:08:54 10° NE
Meteor 1-27 4.3 18:03:57 10° SSW 18:09:35 89° E 18:15:12 10° NNE
Cosmos 2278 4.0 18:04:45 10° NNW 18:10:28 65° NE 18:16:08 10° SE
ADEOS 4.4 18:06:28 10° S 18:11:33 52° W 18:16:40 10° NNW
USA 186 1.5 18:09:42 10° S 18:12:24 74° WSW 18:15:11 10° NNW
Cosmos 1758 Rocket 3.6 18:09:01 10° N 18:13:25 67° ENE 18:17:49 10° SSE
SL-16 R/B 2.3 18:09:52 10° NNW 18:15:36 83° ENE 18:21:17 10° SE
Cosmos 1302 Rocket 4.0 18:10:36 10° SSW 18:15:46 78° ESE 18:21:00 10° NNE
ISS -3.3 18:13:26 10° WSW 18:16:37 42° SSE 18:19:48 10° E
Cosmos 2016 Rocket 4.1 18:10:43 10° SSW 18:16:58 83° W 18:23:12 10° N
CZ-4C R/B 2.1 18:12:31 10° SW 18:17:01 79° NW 18:22:57 10° NE
EP 1 4.3 18:15:37 10° NW 18:18:16 74° NE 18:20:50 10° SE
Cosmos 724 4.3 18:12:54 10° SW 18:18:55 85° SE 18:24:52 10° NE
NOSS 3 (A) 4.1 18:18:18 10° NW 18:20:20 59° NE 18:22:49 11° ESE
SL-08 R/B 3.4 18:17:41 10° NNE 18:22:34 86° WNW 18:27:20 10° SSW
CZ-4B R/B 2.5 18:20:13 10° SSE 18:23:34 69° ENE 18:27:03 10° N
NOSS 3-3 (C) 3.9 18:24:25 10° SSW 18:29:33 50° SE 18:35:43 10° NE
COSMOS 2406 3.5 18:24:31 10° S 18:30:00 47° ESE 18:35:29 10° NE
Cosmos 1980 Rocket 4.1 18:27:31 10° NW 18:32:01 24° WSW 18:36:28 10° SSW
USA 306 1.5 18:29:33 10° WSW 18:32:26 46° SSE 18:34:19 10° E
Meteor 1-20 Rocket 4.2 18:26:50 10° NNW 18:32:26 87° ENE 18:38:06 10° SSE
Terra 3.7 18:31:24 10° SSW 18:35:24 28° W 18:39:27 10° NNW
Helios 1A Rocket 4.4 18:34:03 10° N 18:36:50 29° WNW 18:39:36 10° SW
YAOGAN 11 4.1 18:32:34 10° NNE 18:37:01 90° ESE 18:41:29 10° SSW
Cosmos 1602 Rocket 3.6 18:33:35 10° N 18:37:54 68° ENE 18:41:56 12° SSE
NOSS 3-4 (A) 3.8 18:33:40 10° NW 18:40:09 86° SW 18:47:25 12° SE
Cosmos 2333 Rocket 2.3 18:35:01 10° NW 18:40:45 78° WSW 18:46:04 12° SSE
NOSS 3-4 (C) 3.8 18:34:17 10° NW 18:40:47 87° SW 18:48:04 12° SE
CZ-4 R/B 4.2 18:41:36 10° W 18:42:26 11° W 18:43:16 10° WNW
USA 245 4.5 18:37:50 10° S 18:43:44 75° WSW 18:49:17 10° NNW
Cosmos 2061 Rocket 4.2 18:40:50 10° SSW 18:47:04 79° WNW 18:53:25 10° N
Cosmos 1933 3.2 18:44:39 10° S 18:48:24 61° E 18:52:12 10° NNE
Cosmos 1464 Rocket 4.4 18:44:19 10° SSE 18:50:02 47° E 18:55:56 10° NNE
Cosmos 44 Rocket 4.4 18:45:31 10° WSW 18:50:33 53° NW 18:55:40 10° NE
ATLAS 2AS CENTAUR R/B 3.9 18:45:01 10° W 18:51:35 45° NNW 18:58:06 10° NE
Cosmos 1626 Rocket 4.3 18:50:17 10° NNW 18:54:29 49° W 18:58:43 10° S
SPOT 3 Rocket 4.0 18:53:10 10° S 18:58:15 60° WSW 19:03:22 10° NNW
Cosmos 1607 4.2 18:52:05 10° SW 18:58:18 78° NW 19:04:38 10° NE
Cosmos 2360 Rocket 2.2 18:53:07 10° NNW 18:58:51 89° NE 19:03:37 15° SSE
Cosmos 1805 2.7 18:56:33 10° N 18:59:50 84° E 19:02:14 17° SSE
Ariane Rocket 3.2 18:57:02 11° S 19:01:53 69° WSW 19:06:59 10° NNW
Cosmos 1076 Rocket 3.9 18:58:47 10° N 19:02:57 49° ENE 19:06:00 17° SE
Cosmos 2098 Rocket 3.3 18:58:40 12° S 19:03:01 56° E 19:07:05 10° NNE
Cosmos 2333 4.3 18:58:02 10° NNW 19:03:48 85° ENE 19:08:32 16° SE
Meteor 1-25 Rocket 4.4 18:58:39 10° NNW 19:04:20 73° W 19:09:34 12° S
BREEZE-M DEB (TANK) 2.2 19:03:17 10° WSW 19:05:27 23° S 19:05:38 23° S
Cosmos 220 Rocket 4.0 19:04:11 10° S 19:08:07 54° ESE 19:12:09 10° NE
Cosmos 1536 4.1 19:06:59 10° N 19:10:07 25° ENE 19:12:23 15° ESE
Cosmos 2219 Rocket 2.3 19:07:20 10° NNW 19:13:01 78° NE 19:17:33 17° SE
Helios 1A 4.0 19:10:16 10° NE 19:13:37 26° E 19:15:28 18° SE
Cosmos 1606 Rocket 3.7 19:12:21 16° S 19:15:39 55° E 19:19:54 10° NNE
Cosmos 2151 4.1 19:13:22 10° NNW 19:17:12 38° W 19:20:59 10° SSW
Cosmos 1763 Rocket 4.2 19:15:44 16° SSE 19:19:18 36° ESE 19:24:06 10° NE
Helios 1B rocket 3.1 19:18:06 17° ESE 19:20:14 34° ENE 19:23:27 10° N
Okean 1 3.4 19:18:42 21° SSE 19:20:49 47° E 19:24:18 10° NNE
Okean O Rocket 3.8 19:17:54 10° SW 19:21:01 19° W 19:24:10 10° NW
Cosmos 990 Rocket 4.0 19:18:55 10° NNW 19:24:06 82° ENE 19:27:52 19° SSE
Cosmos 1726 Rocket 3.7 19:22:24 20° SSE 19:24:57 49° E 19:28:53 10° NNE
Cosmos 2034 Rocket 4.2 19:22:29 16° SSE 19:27:36 59° E 19:33:49 10° NNE
TSX-5 4.3 19:26:34 10° NNW 19:29:30 38° NE 19:31:39 17° ESE
Cosmos 2322 Rocket 2.6 19:24:15 10° NW 19:29:46 56° WSW 19:33:58 18° S
Okean 1-7 Rocket 3.9 19:25:43 10° NNW 19:30:09 64° W 19:33:33 17° S
Cosmos 1461 2.4 19:26:45 10° SW 19:30:27 77° SE 19:34:07 10° NE
RESURS DK-1 3.5 19:27:05 10° NNW 19:30:46 35° NE 19:34:01 12° ESE
CZ-2C R/B 3.5 19:30:01 15° SSW 19:31:48 28° W 19:34:17 10° NW
Cosmos 1470 4.2 19:29:38 10° NNE 19:32:13 21° ENE 19:33:54 15° ESE
Cosmos 2082 Rocket 3.5 19:30:59 10° WSW 19:36:26 44° NW 19:41:54 10° NNE
Cosmos 1437 Rocket 4.0 19:37:13 10° SW 19:40:32 36° WNW 19:43:55 10° N
Cosmos 1975 4.3 19:38:04 10° NNE 19:41:03 23° ENE 19:43:05 15° ESE
Cosmos 1503 Rocket 4.3 19:37:07 10° NNW 19:42:13 57° WSW 19:45:44 20° S
Cosmos 909 Rocket 4.5 19:36:28 10° WSW 19:42:43 68° NW 19:49:31 10° NE
Nadezhda 4 Rocket 4.3 19:36:47 10° NNW 19:42:50 64° W 19:47:52 15° S
Meteor 1-26 Rocket 4.4 19:42:46 20° SSE 19:46:29 55° E 19:52:03 10° NNE
Cosmos 2237 Rocket 3.6 19:42:37 10° NNW 19:47:48 34° NE 19:52:56 10° ESE
NOSS 3-3 (A) 4.3 19:43:33 10° WSW 19:49:01 66° NNW 19:55:47 10° NE
Cosmos 44 3.5 19:45:33 10° NW 19:51:00 82° SW 19:54:37 21° SE
IKONOS-2 4.5 19:47:14 10° NNE 19:51:21 64° ESE 19:53:46 24° S
Cosmos 1634 Rocket 4.3 19:48:18 20° SSE 19:52:23 52° E 19:58:22 10° NNE
ISS -3.5 19:49:54 10° W 19:53:08 47° S 19:54:30 28° SE
Cosmos 1354 Rocket 4.2 19:50:38 10° NNW 19:55:50 63° WSW 19:59:07 22° S
Cosmos-2242 3.0 19:54:02 25° SSE 19:56:13 59° E 20:00:17 10° NNE
COSMOS 2428 3.0 19:50:52 10° NNW 19:56:33 63° NE 20:00:54 17° SE
SL-16 R/B 3.9 19:54:43 10° NW 19:59:03 23° WSW 20:03:19 10° SSW
USA 306 3.1 19:57:12 10° W 19:58:04 18° W 19:58:04 18° W
CZ-2C R/B 4.2 19:56:03 10° ESE 20:00:20 26° NE 20:04:34 10° N
KORONAS-FOTON 4.1 19:59:46 30° SE 20:00:50 39° E 20:04:02 10° NNE
USA 290 2.1 20:01:14 23° SSW 20:03:03 83° WNW 20:06:12 10° NNE
Cosmos 1707 1.8 20:04:33 43° SSE 20:05:16 68° E 20:08:07 10° NNE
Cosmos 2026 Rocket 4.2 19:59:28 10° NNW 20:05:50 73° W 20:10:23 20° S
CZ-4C R/B 3.8 20:01:14 10° W 20:06:00 39° N 20:12:10 10° ENE
Cosmos 372 Rocket 3.9 20:02:28 10° NNW 20:07:38 85° ENE 20:10:44 24° SSE
Cosmos 1953 Rocket 4.1 20:05:55 10° NNW 20:10:09 51° W 20:12:42 22° SSW
COSMOS 2406 4.3 20:08:51 10° WSW 20:14:22 46° NW 20:19:54 10° NNE
Aureole 1 Rocket 4.0 20:11:04 10° NNW 20:16:33 69° WSW 20:20:45 23° S
Meteor 1-14 Rocket 4.3 20:12:28 10° N 20:18:03 70° ENE 20:21:27 24° SSE
Cosmos 1271 Rocket 3.1 20:19:22 32° SE 20:20:14 39° E 20:23:25 10° NNE
Cosmos 2221 3.4 20:18:37 25° SE 20:20:15 35° E 20:24:05 10° NNE
GP-B 4.3 20:18:25 10° NNE 20:22:16 29° E 20:24:23 20° SE
Cosmos 540 Rocket 3.4 20:18:42 17° SSW 20:22:42 90° ESE 20:27:53 10° NNE
Cosmos 2058 Rocket 3.0 20:20:44 26° S 20:23:09 90° E 20:27:31 10° NNE
Cosmos 2333 Rocket 4.2 20:20:34 10° WNW 20:24:09 17° W 20:27:45 10° SW
Cosmos 1937 Rocket 3.6 20:20:17 10° NNW 20:25:27 71° ENE 20:28:40 23° SE
Cosmos 1766 3.8 20:25:09 10° NNW 20:28:09 36° W 20:29:18 26° SW
Geosat 4.0 20:25:06 10° NNE 20:30:09 84° NW 20:34:37 13° SW
Spot 4 3.8 20:28:46 28° SSE 20:31:21 87° WSW 20:36:11 10° NNW
ARGOS Delta rocket 4.4 20:27:53 10° NNE 20:32:53 53° E 20:35:39 26° SSE
BREEZE-M R/B 4.3 20:26:33 10° W 20:33:50 54° SSW 20:39:30 10° ESE
Cosmos 468 Rocket 4.0 20:30:46 24° S 20:33:57 69° ESE 20:39:11 10° NNE
Cosmos 1842 2.6 20:33:12 45° SSE 20:34:00 71° E 20:37:10 10° NNE
Cosmos 1833 4.2 20:29:39 12° SW 20:34:53 83° WNW 20:40:33 10° NNE
ARIANE 5 R/B 2.6 20:34:30 30° S 20:36:42 78° WSW 20:41:12 10° NNW
CZ-2C R/B 4.2 20:31:57 10° NNE 20:37:11 35° E 20:40:12 21° SE
Cosmos 2297 Rocket 3.6 20:35:27 19° SE 20:37:34 23° ESE 20:41:55 10° NE
ALOS 2 2.5 20:35:46 30° SSE 20:37:56 88° W 20:42:22 10° NNW
Meteor 2-6 Rocket 4.3 20:35:51 24° S 20:39:37 79° E 20:45:36 10° NNE
USA 234 3.8 20:35:44 10° ENE 20:41:40 35° SE 20:44:47 23° S
Cosmos 2360 Rocket 3.9 20:38:01 10° NW 20:42:07 21° W 20:45:21 13° SW
Cosmos 2322 3.8 20:36:31 10° NW 20:42:12 67° WSW 20:45:23 26° SSE
ATLAS 2AS CENTAUR R/B 4.0 20:37:25 10° WNW 20:43:51 41° N 20:50:14 10° E
Cosmos 1536 3.7 20:42:02 10° NNW 20:45:25 34° W 20:46:54 24° SW
Helios 1A 3.9 20:44:44 10° N 20:48:26 40° WNW 20:51:10 16° SW
Helios 1B rocket 3.6 20:52:03 20° SW 20:53:17 25° W 20:56:14 10° NW
PSLV R/B 3.6 20:51:11 10° NNE 20:55:25 64° ESE 20:57:18 32° S
Cosmos 2219 Rocket 3.6 20:51:55 10° NW 20:56:25 25° WSW 20:59:14 17° SW
Cosmos 1898 Rocket 3.7 20:51:58 10° NNW 20:57:02 56° WSW 20:59:35 28° S
SeaSat 1 3.1 20:55:07 13° ESE 20:59:21 54° NE 21:04:08 10° NNW
Meteor 1-19 Rocket 4.3 20:57:24 27° S 21:00:43 72° E 21:06:40 10° NNE
Cosmos 1763 Rocket 4.3 20:55:47 10° SW 21:00:54 49° NW 21:06:01 10° NNE
Cosmos 1766 Rocket 4.2 20:57:06 10° N 21:01:16 46° ENE 21:03:33 23° SE
Cosmos 1470 3.4 21:03:12 10° NNW 21:06:14 34° W 21:07:05 29° SW
RESURS DK-1 2.9 21:04:28 10° NW 21:08:11 39° WSW 21:09:14 32° SSW
Cosmos 2322 Rocket 4.4 21:10:47 10° WNW 21:12:36 12° W 21:14:25 10° WSW
NOSS 0 Rocket 4.1 21:06:38 10° NW 21:12:43 60° WSW 21:16:10 26° S
NOSS 8 (H) 4.0 21:11:43 10° NW 21:14:33 58° SW 21:14:47 55° SSW
BREEZE-M DEB (TANK) 3.8 21:09:10 10° W 21:15:30 41° SSW 21:20:20 10° ESE
Cosmos 1975 3.4 21:12:42 10° NNW 21:16:10 39° W 21:17:20 30° SW
Intercosmos 24 3.7 21:14:20 10° N 21:18:32 84° E 21:19:54 37° SSE
MetOp-A 3.8 21:16:05 30° S 21:18:32 74° WSW 21:23:14 10° NNW
SL-16 R/B 3.3 21:14:01 10° NNW 21:19:28 43° NE 21:24:52 10° ESE
Lacrosse 4 Rocket 2.8 21:25:45 21° SE 21:26:30 22° ESE 21:29:41 10° ENE
ISS -1.5 21:26:47 10° W 21:27:26 14° WSW 21:27:26 14° WSW
Cosmos 841 Rocket 3.5 21:29:04 25° SSW 21:32:12 84° WNW 21:37:30 10° NNE
Cosmos 2237 Rocket 2.2 21:26:39 10° NW 21:32:19 71° WSW 21:35:40 25° SSE
Cosmos 1812 Rocket 3.8 21:33:38 28° SSW 21:35:48 63° WNW 21:40:13 10° N
Meteor 1-11 Rocket 4.1 21:30:24 10° NNW 21:35:56 53° W 21:38:54 26° SSW
Cosmos 1980 3.8 21:30:45 10° NW 21:36:20 63° WSW 21:39:29 26° S
NOSS 8 (E) 4.2 21:35:02 10° WNW 21:37:52 51° SW 21:38:00 50° SW
Meteor 2-20 Rocket 4.4 21:36:40 26° S 21:39:58 70° E 21:45:40 10° NNE
CZ-2C R/B 2.6 21:37:19 28° S 21:40:10 70° WSW 21:45:23 10° NNW
COSMOS 2428 3.7 21:35:30 10° NW 21:40:29 32° WSW 21:42:51 23° SSW
CZ-4C R/B 4.0 21:38:03 10° NNE 21:41:09 33° E 21:42:10 27° SE
ACS3 Solar Sail 2.6 21:35:35 10° NNE 21:41:11 40° E 21:45:00 19° SSE
Meteor 2-4 Rocket 3.8 21:41:22 27° S 21:44:22 65° E 21:49:52 10° NNE
Meteor 1-10 Rocket 4.5 21:40:49 24° SSW 21:44:31 72° WNW 21:50:29 10° NNE
Cosmos 2227 Rocket 3.3 21:44:30 21° SSE 21:47:20 32° ESE 21:52:19 10° NE
Meteor 2-20 4.5 21:45:33 25° SSW 21:49:20 78° WNW 21:55:28 10° N
Okean 3 Rocket 4.1 21:46:20 10° N 21:50:48 56° ENE 21:53:39 21° SSE
Cosmos 1271 Rocket 4.5 21:52:42 14° WSW 21:54:36 20° WNW 21:57:12 10° NNW
CZ-4C R/B 3.9 21:50:03 10° NW 21:55:31 42° NNE 22:02:33 10° E
Cosmos 192 4.3 21:51:35 10° NNW 21:56:32 75° WSW 21:59:23 25° SSE
Cosmos 2221 3.8 21:54:54 18° WSW 21:57:18 31° WNW 22:01:05 10° N
Cosmos 2263 Rocket 3.6 21:56:11 17° SSE 21:59:12 26° ESE 22:03:46 10° NE
GP-B 3.9 21:55:19 10° NNW 21:59:24 39° W 22:01:32 23° SW
Meteor 1-27 Rocket 3.8 21:56:56 25° SSW 22:00:28 78° WNW 22:06:15 10° NNE
Cosmos 1842 Rocket 3.7 22:01:31 29° S 22:03:39 66° E 22:08:03 10° NNE
Cosmos 1238 Rocket 2.9 22:02:31 32° SSW 22:04:16 73° WNW 22:08:39 10° N
Cosmos 1805 Rocket 4.1 22:06:30 10° N 22:10:46 54° ENE 22:13:48 18° SSE
Sich 1 2.8 22:09:57 10° NNW 22:14:08 86° W 22:16:18 28° S
Iridium 4 Rocket 3.8 22:11:57 24° S 22:15:29 88° W 22:21:21 10° N
Landsat 5 3.4 22:13:00 10° NNE 22:17:08 75° WNW 22:19:05 29° SSW
CZ-2C R/B 3.8 22:11:36 10° N 22:17:10 55° WNW 22:21:10 19° SW
SL-19 R/B 4.3 22:19:08 22° SE 22:20:52 54° ENE 22:24:03 10° N
Cosmos 2297 Rocket 2.2 22:17:12 22° SW 22:20:59 81° NW 22:26:42 10° NNE
Cosmos 1745 Rocket 4.4 22:16:43 10° N 22:22:47 58° ENE 22:28:46 10° SSE
Cosmos 1655 Rocket 4.3 22:16:49 10° NNW 22:22:50 53° W 22:26:42 22° SSW
Cosmos 1758 3.0 22:19:47 10° NNW 22:23:25 89° ENE 22:25:10 29° S
USA 234 3.2 22:18:44 10° ENE 22:25:18 78° SSE 22:31:53 10° WSW
Cosmos 1408 Rocket 3.4 22:31:07 10° NNW 22:35:26 89° WSW 22:38:11 22° S
ATLAS 2AS CENTAUR R/B 3.0 22:28:53 10° NW 22:35:41 72° NE 22:42:29 10° ESE
Cosmos 1340 Rocket 2.7 22:32:56 10° NNW 22:36:47 80° ENE 22:39:16 21° SSE
SeaSat 1 3.2 22:34:43 24° SSW 22:36:54 35° WSW 22:41:24 10° NW
Meteor 2-10 Rocket 4.1 22:32:22 10° NNW 22:37:37 48° W 22:40:59 22° SSW
Iridium 45 4.4 22:37:59 30° S 22:39:36 84° W 22:43:03 10° N
SL-14 R/B 3.1 22:38:08 28° SSW 22:40:03 88° W 22:43:53 10° NNE
EXPRESS MD2 4.4 22:43:30 13° ESE 22:43:30 13° ESE 22:43:57 10° ESE
Cosmos 1125 Rocket 3.5 22:38:56 10° NNW 22:44:14 74° WSW 22:48:46 14° SSE
BlueWalker 3 2.5 22:43:33 29° S 22:44:24 33° SSE 22:47:37 10° E
Cosmos 1066 Rocket 4.3 22:40:54 22° SSW 22:44:26 66° WNW 22:49:58 10° N
Meteor 1-18 Rocket 4.3 22:49:51 21° SSW 22:53:41 71° WNW 22:59:23 10° NNE
DELTA 2 DEB (DPAF) 4.1 22:50:35 10° N 22:54:02 48° WNW 22:55:55 23° SW
Cosmos 2084 3.4 22:50:53 10° WNW 22:54:56 56° SW 22:58:57 10° SSE
Cosmos 1814 Rocket 4.2 22:59:05 19° SW 23:02:48 66° WNW 23:08:03 10° NNE
Cosmos 1953 2.7 22:59:44 10° N 23:03:21 55° ENE 23:06:55 10° SSE
SL-16 R/B 2.4 22:58:13 10° NW 23:03:43 51° WSW 23:08:39 13° S
Lacrosse 4 Rocket 1.6 23:01:08 19° SW 23:03:55 62° NW 23:08:00 10° NE
BREEZE-M DEB (TANK) 3.7 23:07:01 23° SSW 23:07:25 23° S 23:11:45 10° SE
IDEFIX/ARIANE 42P 2.9 23:03:14 10° NNE 23:08:26 62° ESE 23:12:47 15° S
CZ-2D R/B 4.3 23:04:26 10° NE 23:08:27 21° E 23:12:28 10° SE
Cosmos 2219 3.9 23:04:46 16° S 23:09:04 46° ESE 23:14:26 10° NE
NPP 4.2 23:08:19 10° NNE 23:13:38 55° E 23:18:30 12° S
Cosmos 2237 Rocket 3.9 23:12:15 10° WNW 23:15:23 15° W 23:17:27 13° WSW
H-2A R/B 4.3 23:12:17 10° NE 23:16:16 21° E 23:20:15 10° SE
Cosmos 2285 Rocket 4.5 23:10:33 10° NNW 23:16:50 64° ENE 23:23:06 10° SE
Cosmos 1633 Rocket 3.4 23:13:32 10° N 23:17:51 63° ENE 23:22:08 10° SSE
Cosmos 1151 Rocket 3.2 23:15:33 20° SSW 23:18:27 61° WNW 23:22:45 10° N
Cosmos 1500 Rocket 4.2 23:15:50 10° NNW 23:19:58 39° W 23:22:48 18° SSW
S3M 4.0 23:14:46 14° S 23:20:13 82° E 23:26:23 10° NNE
PSLV R/B 4.3 23:18:00 10° N 23:21:46 48° WNW 23:24:24 18° SW
ACS3 Solar Sail 2.3 23:17:58 10° N 23:23:39 48° WNW 23:28:30 14° SW
Meteor 1-22 Rocket 4.3 23:19:17 10° NNW 23:25:08 73° W 23:30:44 10° S
CENTAUR R/B 4.0 23:20:37 10° SSE 23:25:13 26° ESE 23:30:41 10° ENE
Cosmos 2315 Rocket 4.2 23:22:19 11° S 23:28:23 76° E 23:34:43 10° NNE
Cosmos 2227 Rocket 2.5 23:26:17 14° SW 23:31:05 62° NW 23:36:44 10° NNE
DMSP B5D2-2 4.4 23:27:02 10° SSE 23:32:12 69° ENE 23:37:25 10° NNW
H-2A R/B 3.8 23:31:04 10° SE 23:34:19 34° ENE 23:37:39 10° N
Envisat 4.2 23:31:19 10° NNE 23:36:03 38° E 23:40:45 10° SSE
Cosmos 2263 Rocket 2.3 23:37:50 14° SW 23:42:39 73° NW 23:48:15 10° NNE
BREEZE-M DEB (TANK) 3.1 23:36:05 10° WSW 23:44:08 45° S 23:47:17 10° ESE
MSX 3.9 23:38:24 10° NNE 23:44:12 78° WNW 23:49:33 12° SSW
CZ-4C R/B 3.0 23:38:12 10° NW 23:44:35 79° NE 23:52:49 10° SE
Cosmos 1709 Rocket 4.2 23:39:18 10° NNW 23:45:19 56° W 23:51:22 10° SSW
SL-16 R/B 4.3 23:41:57 10° ESE 23:47:30 35° NE 23:53:04 10° N
Cosmos 1666 Rocket 3.7 23:44:58 10° NNW 23:49:21 58° W 23:53:42 10° S
Cosmos 1943 3.3 23:43:59 10° NW 23:49:29 56° WSW 23:54:56 10° SSE
Meteor 1-15 Rocket 4.4 23:45:22 10° NNW 23:51:14 67° W 23:57:06 10° S
Cosmos 1867 3.5 23:46:10 10° NW 23:51:37 68° SW 23:57:01 10° SSE
NOSS 7 (H) 4.5 23:52:13 10° WNW 23:55:01 39° SW 23:57:54 10° SSE
